{"data":{"norad_id":66180,"intl_designator":"2025-243D","name":"STARLINK-35335","alt_names":[],"object_type":"PAYLOAD","status":"ACTIVE","operator":null,"country":"US","launch_date":"2025-10-26","launch_site_code":"AFETR","launch_vehicle":null,"mission":null,"orbit_class":"UNKNOWN","rcs_meters":null,"size_class":null,"mass_kg":null,"dimensions":null,"purposes":["comms"],"wikipedia_slug":null,"has_3d_model":false,"image_url":null,"decayed_at":null,"tle_current":{"epoch":"2026-09-20T21:05:46.178016Z","epoch_age_seconds":67682,"freshness":"FRESH","line1":"1 66180U 25243D   26263.87900669  .00018163  00000+0  54721-3 0  9991","line2":"2 66180  53.1575  56.1018 0001265  70.5415 289.5724 15.34409409 50579","mean_motion":15.34409409,"eccentricity":0.0001265,"inclination_deg":53.1575,"raan_deg":56.1018,"arg_perigee_deg":70.5415,"mean_anomaly_deg":289.5724,"bstar":0.00054721,"rev_number":5057,"period_min":93.84718260679,"perigee_km":461.80991206639,"apogee_km":463.54063757192,"semimajor_km":6840.8122748192,"source":"CELESTRAK","updated_at":"2026-09-21T09:00:35.833858Z"}}}